This is the latest recevied weather packets stored in our database for station/object N8VDS-10. If no packets are shown the sender has not sent any weather packets the latest 10 day(s).
| Time | Temp. | Humidity | Pressure | Rain* | Wind** | Luminosity | Snow |
|---|---|---|---|---|---|---|---|
| 1778065961 | 3.89° C | 76% | 1014.3 hPa | 0 mm | - | 36 W/m² | - |
| 1778065657 | 3.89° C | 76% | 1014.2 hPa | 0 mm | - | 25 W/m² | - |
| 1778065356 | 3.89° C | 77% | 1013.9 hPa | 0 mm | - | 21 W/m² | - |
| 1778065052 | 3.89° C | 77% | 1013.9 hPa | 0 mm | - | 20 W/m² | - |
| 1778064749 | 3.89° C | 78% | 1013.9 hPa | 0 mm | - | 18 W/m² | - |
| 1778064447 | 3.89° C | 77% | 1013.7 hPa | 0 mm | - | 13 W/m² | - |
| 1778064144 | 3.89° C | 77% | 1014 hPa | 0 mm | - | 11 W/m² | - |
| 1778063841 | 3.89° C | 77% | 1013.8 hPa | 0 mm | - | 8 W/m² | - |
| 1778063538 | 3.89° C | 77% | 1013.5 hPa | 0 mm | - | 5 W/m² | - |
| 1778063236 | 3.89° C | 77% | 1013.7 hPa | 0 mm | - | 4 W/m² | - |
| 1778062934 | 3.89° C | 76% | 1013.3 hPa | 0 mm | - | 2 W/m² | - |
| 1778062630 | 4.44° C | 76% | 1013.3 hPa | 0 mm | - | 1 W/m² | - |
| 1778062327 | 4.44° C | 76% | 1013.4 hPa | 0 mm | - | 1 W/m² | - |
| 1778062025 | 4.44° C | 76% | 1013.2 hPa | 0 mm | - | 0 W/m² | - |
| 1778061723 | 4.44° C | 76% | 1013.1 hPa | 0 mm | - | 0 W/m² | - |
| 1778061421 | 5° C | 76% | 1013.1 hPa | 0 mm | - | 0 W/m² | - |
| 1778061117 | 5° C | 75% | 1013.2 hPa | 0 mm | - | 0 W/m² | - |
| 1778060815 | 5° C | 76% | 1012.8 hPa | 0 mm | - | 0 W/m² | - |
| 1778060513 | 5.56° C | 77% | 1012.6 hPa | 0 mm | - | 0 W/m² | - |
| 1778060211 | 5.56° C | 78% | 1012.8 hPa | 0 mm | - | 0 W/m² | - |
| 1778059908 | 5.56° C | 80% | 1012.8 hPa | 0 mm | - | 0 W/m² | - |
| 1778059606 | 5.56° C | 84% | 1012.6 hPa | 0 mm | - | 0 W/m² | - |
| 1778059303 | 5.56° C | 84% | 1012.9 hPa | 0 mm | - | 0 W/m² | - |
| 1778059000 | 5.56° C | 84% | 1012.8 hPa | 0 mm | - | 0 W/m² | - |
| 1778058698 | 5.56° C | 84% | 1012.7 hPa | 0 mm | - | 0 W/m² | - |
* Rain latest hour (hover to see other rain measurements)
** Current wind speed in m/s (hover to see current wind gust speed)